This demonstration page uses our WeatherBlox Daily Observations layout. Learn more.

Left ArrowRight Arrow

47.50024, -111.30081

Hourly Observations for May 2, 2015

Temp ( °F °C ) Dew Point ( °F °C ) Humidity (%) Winds ( mph kmh ) Pressure ( in mb ) Visibility ( mi km ) Precip ( " mm )
12:53 am 00:53 Clear 55 12.8 22 -5.6 28 28 SW 10 17 29.74 1007 10 16 0.00 0.00
1:53 am 01:53 Clear 55 12.8 22 -5.6 28 28 SSW 13 20 29.72 1006 10 16 0.00 0.00
2:53 am 02:53 Clear 55 12.8 22 -5.6 28 28 SW 15 24 29.69 1006 10 16 0.00 0.00
3:53 am 03:53 Clear 55 12.8 22 -5.6 28 28 SW 15 24 29.69 1005 10 16 0.00 0.00
4:53 am 04:53 Clear 50 10 23 -5 35 35 SW 12 19 29.70 1006 10 16 0.00 0.00
5:53 am 05:53 Clear 50 10 23 -5 35 35 SW 13 20 29.70 1006 10 16 0.00 0.00
6:53 am 06:53 Sunny 50 10 25 -3.9 38 38 SSW 13 20 29.70 1006 10 16 0.00 0.00
7:53 am 07:53 Sunny 56 13.3 26 -3.3 32 32 SSW 10 17 29.71 1006 10 16 0.00 0.00
8:53 am 08:53 Sunny 63 17.2 25 -3.9 24 24 SW 17 28 29.70 1006 10 16 0.00 0.00
9:53 am 09:53 Sunny 65 18.3 25 -3.9 22 22 WSW 21 33 29.70 1006 10 16 0.00 0.00
10:34 am 10:34 Sunny 63 17 30 -1 30 30 NW 18 30 29.59 1002 10 16 0.00 0.00
10:53 am 10:53 Sunny 62 16.7 32 0 32 32 NNW 16 26 29.72 1007 10 16 0.00 0.00
11:53 am 11:53 Sunny 63 17.2 34 1.1 34 34 NNW 18 30 29.73 1007 10 16 0.00 0.00
12:53 pm 12:53 Sunny 64 17.8 32 0 30 30 NNW 16 26 29.74 1007 10 16 0.00 0.00
1:53 pm 13:53 Sunny 65 18.3 32 0 29 29 NW 9 15 29.74 1007 10 16 0.00 0.00
2:53 pm 14:53 Sunny 66 18.9 31 -0.6 27 27 VRB 6 9 29.73 1007 10 16 0.00 0.00
3:53 pm 15:53 Sunny 67 19.4 30 -1.1 25 25 NNW 12 19 29.72 1007 10 16 0.00 0.00
4:51 pm 16:51 Sunny 66 19 34 1 30 30 NNE 12 19 29.62 1003 10 16 0.00 0.00
4:53 pm 16:53 Sunny 66 18.9 34 1.1 30 30 NE 17 28 29.74 1007 10 16 0.00 0.00
5:53 pm 17:53 Sunny 62 16.7 36 2.2 38 38 NE 18 30 29.77 1008 10 16 0.00 0.00
6:53 pm 18:53 Sunny 59 15 35 1.7 41 41 NNE 17 28 29.79 1009 10 16 0.00 0.00
7:53 pm 19:53 Sunny 55 12.8 33 0.6 44 44 NE 16 26 29.82 1010 10 16 0.00 0.00
8:53 pm 20:53 Clear 50 10 31 -0.6 48 48 NE 14 22 29.87 1011 10 16 0.00 0.00
9:53 pm 21:53 Clear 46 7.8 31 -0.6 56 56 NNE 15 24 29.92 1013 10 16 0.00 0.00
10:53 pm 22:53 Cloudy 44 6.7 28 -2.2 53 53 NNE 13 20 29.97 1015 10 16 0.00 0.00
11:53 pm 23:53 Cloudy 45 7.2 27 -2.8 49 49 NE 13 20 29.98 1015 10 16 0.00 0.00

Powered by AerisWeather